Weather History for KEWN - July, 2013

Change the Weather History Date:

Thursday, July 25, 2013

  Actual Average Record
Temperature  
Mean Temperature 80 °F 81 °F  
Max Temperature 87 °F 90 °F 97 °F (2010)
Min Temperature 73 °F 72 °F 62 °F (2007)
Degree Days  
Heating Degree Days 0 0  
Month to date heating degree days 0 0  
Since 1 June heating degree days 0 1  
Since 1 July heating degree days 0 0  
Cooling Degree Days 15 16  
Month to date cooling degree days 429 393  
Year to date cooling degree days 1094 1001  
Since 1 June cooling degree days 838 758  
Growing Degree Days 30 (Base 50)    
Moisture  
Dew Point 71 °F    
Average Humidity 77    
Maximum Humidity 94    
Minimum Humidity 59    
Precipitation  
Precipitation 0.00 in 0.21 in 3.42 in (2006)
Month to date precipitation 2.98 4.86  
Year to date precipitation 22.54 28.84  
Snow  
Snow 0.00 in - - ()
Month to date snowfall 0.0  
Since 1 July snowfall 0.0  
Snow Depth 0.00 in    
Sea Level Pressure  
Sea Level Pressure 29.88 in    
Wind  
Wind Speed 8 mph (North)    
Max Wind Speed 16 mph    
Max Gust Speed 20 mph    
Visibility 10 miles    
Events      
T = Trace of Precipitation, MM = Missing Value Source: NWS Daily Summary

Daily Weather History Graph

Daily Weather History Graph

Search for Another Location

Airport or City:

Trip Planner

Search our weather history database for the weather conditions in past years. The results will help you decide how hot, cold, wet, or windy it might be!

Date:

Astronomy

Jul. 25, 2013 Rise Set
Actual Time 6:12 AM EDT 8:16 PM EDT
Civil Twilight 5:44 AM EDT 8:44 PM EDT
Nautical Twilight 5:09 AM EDT 9:19 PM EDT
Astronomical Twilight 4:32 AM EDT 9:56 PM EDT
Moon 10:07 PM EDT (7/25) 9:29 AM EDT (7/25)
Length of Visible Light 15h 00m
Length of Day
14h 04m
Waning Gibbous, 88% of the Moon is Illuminated
Jul 25
Waning Gibbous
Jul 29
Last Quarter
Aug 6
New
Aug 14
First Quarter
Aug 20
Full

Hourly Weather History & Observations

Time (EDT) Temp. Heat Index Dew Point Humidity Pressure Visibility Wind Dir Wind Speed Gust Speed Precip Events Conditions
12:26 AM 77.0 °F - 69.8 °F 78% 29.85 in 10.0 mi Calm Calm - N/A   Scattered Clouds
12:54 AM 77.0 °F - 68.0 °F 74% 29.84 in 10.0 mi NNW 4.6 mph - N/A   Clear
1:54 AM 75.0 °F - 70.0 °F 84% 29.82 in 10.0 mi Calm Calm - N/A   Clear
2:54 AM 73.9 °F - 69.1 °F 85% 29.81 in 10.0 mi NNW 4.6 mph - N/A   Scattered Clouds
3:02 AM 73.4 °F - 69.8 °F 88% 29.81 in 10.0 mi NW 5.8 mph - N/A   Mostly Cloudy
3:54 AM 73.9 °F - 68.0 °F 82% 29.82 in 10.0 mi North 9.2 mph - N/A   Mostly Cloudy
4:54 AM 73.0 °F - 70.0 °F 90% 29.82 in 10.0 mi North 4.6 mph - N/A   Scattered Clouds
5:54 AM 73.0 °F - 70.0 °F 90% 29.82 in 10.0 mi North 4.6 mph - N/A   Clear
6:54 AM 73.9 °F - 70.0 °F 87% 29.85 in 10.0 mi North 4.6 mph - N/A   Partly Cloudy
7:35 AM 73.4 °F - 71.6 °F 94% 29.84 in 10.0 mi North 9.2 mph - N/A   Mostly Cloudy
7:44 AM 75.2 °F - 71.6 °F 89% 29.84 in 10.0 mi North 8.1 mph - N/A   Mostly Cloudy
7:54 AM 75.0 °F - 71.1 °F 87% 29.85 in 8.0 mi NNE 6.9 mph - N/A   Overcast
8:54 AM 75.9 °F - 73.0 °F 91% 29.86 in 6.0 mi North 6.9 mph - N/A   Overcast
9:51 AM 78.8 °F - 73.4 °F 83% 29.86 in 8.0 mi North 10.4 mph - N/A   Overcast
9:54 AM 79.0 °F - 73.0 °F 82% 29.86 in 9.0 mi North 9.2 mph - N/A   Overcast
10:03 AM 78.8 °F - 73.4 °F 83% 29.86 in 10.0 mi North 6.9 mph - N/A   Overcast
10:31 AM 80.6 °F 85.4 °F 73.4 °F 79% 29.87 in 10.0 mi NNE 9.2 mph - N/A   Overcast
10:54 AM 81.0 °F 85.8 °F 73.0 °F 77% 29.87 in 10.0 mi NE 11.5 mph - N/A   Overcast
11:51 AM 84.2 °F 90.9 °F 73.4 °F 70% 29.88 in 10.0 mi NNE 6.9 mph - N/A   Scattered Clouds
11:54 AM 84.0 °F 90.2 °F 73.0 °F 69% 29.88 in 10.0 mi NNE 6.9 mph - N/A   Scattered Clouds
12:54 PM 84.9 °F 91.4 °F 73.0 °F 67% 29.88 in 10.0 mi North 8.1 mph - N/A   Scattered Clouds
1:21 PM 84.2 °F 90.9 °F 73.4 °F 70% 29.89 in 10.0 mi NNW 9.2 mph 17.3 mph N/A   Mostly Cloudy
1:54 PM 84.9 °F 91.4 °F 73.0 °F 67% 29.88 in 10.0 mi North 11.5 mph 16.1 mph N/A   Mostly Cloudy
2:05 PM 86.0 °F 93.4 °F 73.4 °F 66% 29.88 in 10.0 mi North 12.7 mph - N/A   Mostly Cloudy
2:54 PM 87.1 °F 94.5 °F 73.0 °F 63% 29.88 in 10.0 mi North 12.7 mph 17.3 mph N/A   Scattered Clouds
3:54 PM 87.1 °F 92.8 °F 71.1 °F 59% 29.88 in 10.0 mi NNW 9.2 mph - N/A   Partly Cloudy
4:54 PM 86.0 °F 91.5 °F 71.1 °F 61% 29.89 in 10.0 mi North 12.7 mph 18.4 mph N/A   Partly Cloudy
5:54 PM 84.9 °F 90.1 °F 71.1 °F 63% 29.90 in 10.0 mi NNW 9.2 mph - N/A   Partly Cloudy
6:54 PM 82.9 °F 87.0 °F 70.0 °F 65% 29.93 in 10.0 mi North 9.2 mph - N/A   Scattered Clouds
7:54 PM 81.0 °F 84.4 °F 70.0 °F 69% 29.94 in 10.0 mi North 6.9 mph - N/A   Clear
8:54 PM 78.1 °F - 69.1 °F 74% 29.96 in 10.0 mi North 6.9 mph - N/A   Clear
9:54 PM 77.0 °F - 69.1 °F 76% 29.99 in 10.0 mi North 8.1 mph - N/A   Clear
10:54 PM 75.0 °F - 69.1 °F 82% 30.01 in 10.0 mi North 6.9 mph - N/A   Clear
11:54 PM 73.9 °F - 69.1 °F 85% 30.01 in 10.0 mi North 4.6 mph - N/A   Clear